Weather History for Cincinnati, OH

Change the Weather History Date:

Friday, December 7, 2012

  Actual Average Record
Temperature  
Mean Temperature 48 °F -  
Max Temperature 54 °F 45 °F 71 °F (1998)
Min Temperature 44 °F 30 °F 3 °F (1977)
Degree Days  
Heating Degree Days 16    
Moisture  
Dew Point 48 °F    
Average Humidity 98    
Maximum Humidity 100    
Minimum Humidity 93    
Precipitation  
Precipitation 0.32 in - - ()
Sea Level Pressure  
Sea Level Pressure 29.95 in    
Wind  
Wind Speed 0 mph (SSW)    
Max Wind Speed 7 mph    
Max Gust Speed -    
Visibility 3 miles    
Events Rain    
Averages and records for this station are not official NWS values.
T = Trace of Precipitation, MM = Missing Value Source: NWS Daily Summary

Daily Weather History Graph

Daily Weather History Graph

Search for Another Location

Airport:

Trip Planner

Search our weather history database for the weather conditions in past years. The results will help you decide how hot, cold, wet, or windy it might be!

Date:

Astronomy

Dec. 07, 2012 Rise Set
Actual Time 7:43 AM EST 5:14 PM EST
Civil Twilight 7:14 AM EST 5:44 PM EST
Nautical Twilight 6:40 AM EST 6:18 PM EST
Astronomical Twilight 6:08 AM EST 6:50 PM EST
Moon 1:04 AM EST (12/7) 1:09 PM EST (12/7)
Length of Visible Light 10h 30m
Length of Day
9h 31m
Last Quarter, 39% of the Moon is Illuminated
Dec 7
Last Quarter
Dec 13
New
Dec 20
First Quarter
Dec 28
Full
Jan 4
Last Quarter

Hourly Weather History & Observations

Time (EST) Temp. Windchill Dew Point Humidity Pressure Visibility Wind Dir Wind Speed Gust Speed Precip Events Conditions
12:15 AM 46.4 °F - 44.6 °F 93% 29.99 in 7.0 mi Calm Calm - 0.00 in Rain Light Rain
12:32 AM 46.4 °F - 44.6 °F 93% 30.00 in 2.0 mi Calm Calm - 0.04 in Rain Light Rain
12:41 AM 46.4 °F - 44.6 °F 93% 30.00 in 3.0 mi Calm Calm - 0.05 in Rain Rain
12:53 AM 46.0 °F - 45.0 °F 96% 30.00 in 7.0 mi Calm Calm - 0.05 in Rain Light Rain
1:17 AM 46.4 °F - 44.6 °F 93% 30.00 in 2.5 mi Calm Calm - 0.03 in Rain Rain
1:37 AM 44.6 °F 43.1 °F 44.6 °F 100% 29.99 in 3.0 mi SE 3.5 mph - 0.04 in Rain Light Rain
1:50 AM 46.4 °F - 44.6 °F 93% 30.00 in 2.5 mi Calm Calm - 0.06 in Rain Rain
1:53 AM 46.0 °F - 45.0 °F 96% 30.00 in 2.5 mi Calm Calm - 0.06 in Rain Rain
2:07 AM 46.4 °F - 44.6 °F 93% 29.99 in 2.5 mi Calm Calm - 0.00 in Rain Rain
2:12 AM 46.4 °F - 44.6 °F 93% 29.99 in 3.0 mi Calm Calm - N/A Rain Light Rain
2:36 AM 46.4 °F - 44.6 °F 93% 30.00 in 2.5 mi Calm Calm - N/A Rain Light Rain
2:45 AM 46.4 °F - 44.6 °F 93% 30.00 in 1.8 mi Calm Calm - N/A Rain Rain
2:53 AM 46.0 °F - 46.0 °F 100% 30.00 in 2.0 mi Calm Calm - N/A Rain Light Rain
3:16 AM 46.4 °F - 44.6 °F 93% 30.00 in 3.0 mi Calm Calm - N/A   Overcast
3:53 AM 46.0 °F - 46.0 °F 100% 29.99 in 3.0 mi Calm Calm - N/A   Overcast
4:03 AM 46.4 °F - 46.4 °F 100% 29.99 in 2.5 mi Calm Calm - N/A   Overcast
4:12 AM 46.4 °F - 46.4 °F 100% 29.99 in 3.0 mi Calm Calm - N/A   Overcast
4:35 AM 46.4 °F - 46.4 °F 100% 29.99 in 2.0 mi Calm Calm - N/A Rain Light Rain
4:49 AM 46.4 °F - 46.4 °F 100% 29.99 in 3.0 mi Calm Calm - N/A Rain Light Rain
4:53 AM 46.0 °F 44.8 °F 46.0 °F 100% 29.99 in 3.0 mi South 3.5 mph - N/A Rain Light Rain
5:11 AM 46.4 °F - 46.4 °F 100% 29.99 in 2.5 mi Calm Calm - N/A   Overcast
5:28 AM 46.4 °F - 46.4 °F 100% 29.99 in 3.0 mi Calm Calm - N/A   Overcast
5:37 AM 46.4 °F - 46.4 °F 100% 29.99 in 2.5 mi Calm Calm - N/A   Overcast
5:53 AM 46.9 °F - 46.0 °F 97% 30.00 in 2.0 mi Calm Calm - N/A Rain Light Rain
6:01 AM 46.4 °F - 46.4 °F 100% 29.99 in 1.5 mi Calm Calm - N/A   Overcast
6:45 AM 46.4 °F - 46.4 °F 100% 29.99 in 2.0 mi Calm Calm - N/A Rain Light Rain
6:53 AM 46.9 °F - 46.9 °F 100% 30.00 in 2.5 mi Calm Calm - N/A   Overcast
7:53 AM 46.9 °F - 46.9 °F 100% 30.00 in 2.5 mi Calm Calm - N/A Rain Light Rain
8:24 AM 48.2 °F - 48.2 °F 100% 29.99 in 1.8 mi Calm Calm - N/A Rain Light Rain
8:36 AM 48.2 °F - 48.2 °F 100% 29.99 in 2.5 mi Calm Calm - N/A Rain Light Rain
8:53 AM 48.9 °F - 48.0 °F 97% 30.00 in 1.8 mi Calm Calm - N/A Rain Rain
9:35 AM 48.2 °F - 48.2 °F 100% 30.00 in 2.0 mi Calm Calm - 0.02 in Rain Light Rain
9:53 AM 48.9 °F - 48.0 °F 97% 30.00 in 2.0 mi Calm Calm - 0.02 in Rain Light Rain
10:00 AM 50.0 °F - 48.2 °F 94% 30.00 in 2.0 mi Calm Calm - 0.00 in Rain Light Rain
10:45 AM 50.0 °F - - N/A% 30.00 in 2.0 mi Calm Calm - 0.00 in Rain Light Rain
10:53 AM 50.0 °F - - N/A% 30.00 in 2.0 mi Calm Calm - 0.00 in Rain Rain
11:00 AM 50.0 °F - - N/A% 29.99 in 2.0 mi Calm Calm - 0.00 in Rain Rain
11:24 AM 50.0 °F - - N/A% 29.98 in 2.0 mi Calm Calm - N/A Rain Light Rain
11:34 AM 50.0 °F - - N/A% 29.98 in 2.5 mi Calm Calm - N/A Rain Rain
11:53 AM 51.1 °F - - N/A% 29.98 in 2.0 mi Calm Calm - N/A Rain Light Rain
12:00 PM 51.8 °F - - N/A% 29.97 in 2.0 mi Calm Calm - N/A Rain Light Rain
12:15 PM 51.8 °F - - N/A% 29.96 in 2.0 mi Calm Calm - N/A Rain Heavy Rain
12:27 PM 51.8 °F - - N/A% 29.95 in 2.0 mi Calm Calm - N/A Rain Rain
12:53 PM 51.1 °F - - N/A% 29.95 in 2.0 mi Calm Calm - N/A Rain Light Rain
1:45 PM 51.8 °F - - N/A% 29.91 in 2.0 mi Calm Calm - N/A Rain Rain
1:53 PM 52.0 °F - - N/A% 29.91 in 2.0 mi Calm Calm - N/A   Overcast
2:05 PM 53.6 °F - 53.6 °F 100% 29.91 in 3.0 mi Calm Calm - N/A Rain Light Rain
2:12 PM 53.6 °F - 53.6 °F 100% 29.90 in 5.0 mi Calm Calm - N/A   Overcast
2:51 PM 51.8 °F - 51.8 °F 100% 29.90 in 2.0 mi WSW 3.5 mph - N/A Rain Rain
2:53 PM 52.0 °F - 52.0 °F 100% 29.90 in 2.0 mi Calm Calm - N/A Rain Rain
3:16 PM 51.8 °F - 51.8 °F 100% 29.90 in 1.2 mi Calm Calm - 0.04 in Rain Rain
3:25 PM 51.8 °F - 51.8 °F 100% 29.89 in 1.2 mi Calm Calm - 0.05 in Rain Rain
3:29 PM 51.8 °F - 51.8 °F 100% 29.89 in 2.0 mi Calm Calm - 0.06 in Rain Light Rain
3:53 PM 52.0 °F - 52.0 °F 100% 29.90 in 2.0 mi South 3.5 mph - 0.09 in Rain Light Rain
4:53 PM 52.0 °F - 52.0 °F 100% 29.90 in 6.0 mi Calm Calm - 0.02 in Rain Light Rain
5:53 PM 52.0 °F - 52.0 °F 100% 29.89 in 3.0 mi Calm Calm - 0.06 in Rain Rain
6:33 PM 51.8 °F - 51.8 °F 100% 29.88 in 2.5 mi Calm Calm - 0.02 in Rain Light Rain
6:41 PM 51.8 °F - 51.8 °F 100% 29.88 in 3.0 mi Calm Calm - 0.02 in Rain Light Rain
6:53 PM 51.1 °F - 51.1 °F 100% 29.89 in 3.0 mi Calm Calm - 0.02 in Rain Light Rain
7:53 PM 51.8 °F - 51.8 °F 100% 29.88 in 3.0 mi Calm Calm - N/A   Overcast
8:53 PM 51.1 °F - 51.1 °F 100% 29.88 in 4.0 mi Calm Calm - N/A   Overcast
9:53 PM 52.0 °F - 52.0 °F 100% 29.87 in 4.0 mi Calm Calm - N/A   Overcast
10:00 PM 51.8 °F - 51.8 °F 100% 29.87 in 4.0 mi WSW 3.5 mph - N/A   Overcast
10:07 PM 51.8 °F - 51.8 °F 100% 29.87 in 4.0 mi West 4.6 mph - N/A   Overcast
10:15 PM 51.8 °F - 51.8 °F 100% 29.86 in 4.0 mi Calm Calm - N/A   Overcast
10:49 PM 50.0 °F - 50.0 °F 100% 29.86 in 4.0 mi SW 5.8 mph - N/A   Mostly Cloudy
10:53 PM 50.0 °F - 50.0 °F 100% 29.86 in 4.0 mi SW 5.8 mph - N/A   Mostly Cloudy
11:20 PM 51.8 °F - 51.8 °F 100% 29.87 in 6.0 mi SSW 6.9 mph - N/A   Mostly Cloudy
11:53 PM 54.0 °F - 54.0 °F 100% 29.87 in 8.0 mi SW 6.9 mph - N/A   Mostly Cloudy